Regional Weather Roundup
Issued by NWS

Home | Current Version | Previous Version | Graphics & Text | Print | Product List | Glossary On
Versions: 1 2 3 4 5 6 7 8 9 10 11 12 13 14 15 16 17 18 19 20 21 22 23 24 25 26 27 28 29 30 31 32 33 34 35 36 37 38 39 40 41 42 43 44 45 46 47 48 49 50
000
ASUS45 KPSR 312200
RWRAZ

ARIZONA HOURLY REGIONAL WEATHER ROUNDUP
NATIONAL WEATHER SERVICE PHOENIX AZ
300 PM MST FRI JUL 31 2015

NOTE: FAIR INDICATES FEW OR NO CLOUDS BELOW 12,000 FEET WITH NO
SIGNIFICANT WEATHER AND/OR OBSTRUCTIONS TO VISIBILITY.

AZZ001>003-036-312300-
NORTHWEST ARIZONA

CITY           SKY/WX    TMP DP  RH WIND       PRES   REMARKS
KINGMAN        SUNNY     98  49  18 W9G24     30.07F
$$

AZZ004>008-015-016-018-312300-
NORTH CENTRAL ARIZONA

CITY           SKY/WX    TMP DP  RH WIND       PRES   REMARKS
GRAND CANYON   LGT RAIN  66  51  58 E10G20    30.36F
WILLIAMS       CLOUDY    75  46  35 NE9       30.41F
PRESCOTT       CLOUDY    79  61  53 S8        30.21F
FLAGSTAFF      NOT AVBL
PAYSON         RAIN      68  61  77 CALM      30.24F
PAGE           MOSUNNY   96  44  16 NW8       30.12F
$$

AZZ009>014-017-312300-
NORTHEAST ARIZONA

CITY           SKY/WX    TMP DP  RH WIND       PRES   REMARKS
WINSLOW        NOT AVBL
SAINT JOHNS    CLOUDY    76  58  53 SW12      30.26S
SHOW LOW       PTSUNNY   73  54  49 S12       30.32F
$$

AZZ023-312300-
GREATER PHOENIX AREA

CITY           SKY/WX    TMP DP  RH WIND       PRES   REMARKS
PHOENIX        PTSUNNY  108  56  18 S9        29.85F HX 107
GLENDALE       PTSUNNY  109  57  18 S12G17    29.88F HX 109
LUKE AFB       MOSUNNY  106  57  20 VRB2      29.86F HX 105
DEER VALLEY    MOSUNNY  103  55  20 N16G24    29.90S HX 101
SCOTTSDALE     HAZE      98  58  26 NE22G36   29.94R VSB 1
MESA-FALCON    PTSUNNY  104  61  24 NE12      29.89S HX 105
$$

AZZ027-028-312300-
SOUTHWEST MARICOPA COUNTY AND PINAL COUNTY

CITY           SKY/WX    TMP DP  RH WIND       PRES   REMARKS
CASA GRANDE    MOSUNNY  106  57  20 W7        29.89F HX 105
$$

AZZ503-504-507>509-312300-
SOUTHEAST ARIZONA

CITY           SKY/WX    TMP DP  RH WIND       PRES   REMARKS
TUCSON         CLOUDY    93  59  31 NW6       30.01F
DAVIS-MONTHAN  LGT RAIN  86  68  53 S7        29.99F
RYAN FIELD     PTSUNNY   82  72  69 NW23G36   30.00S
NOGALES        PTSUNNY   75  64  68 NE13      30.09F
SIERRA VISTA   MOSUNNY   90  54  29 VRB1      30.15F
SAFFORD        MOSUNNY   98  57  25 E12G21    30.02F
$$

AZZ020-021-025-026-031-312300-
SOUTHWEST ARIZONA

CITY           SKY/WX    TMP DP  RH WIND       PRES   REMARKS
YUMA           NOT AVBL
$$

CAZ031-033-041-043-047-048-061-312300-
SOUTHERN CALIFORNIA

CITY           SKY/WX    TMP DP  RH WIND       PRES   REMARKS
DOWNTOWN L.A.  NOT AVBL
L.A. AIRPORT   MOSUNNY   75  65  70 W12       29.99F
SAN DIEGO      PTSUNNY   78  64  61 NW12      29.99F
BURBANK        SUNNY     90  64  42 S9        29.97F
ONTARIO        PTSUNNY   95  61  32 SW13G20   29.96F
RIVERSIDE      PTSUNNY   95  62  33 VRB6      29.95F
PALM SPRINGS   PTSUNNY  108  62  22 NW15      29.86F HX 110
EL CENTRO NAS  PTSUNNY  109  44  11 VRB3      29.83F HX 104
IMPERIAL       SUNNY    108  47  13 S6        29.81F HX 104
BLYTHE         SUNNY    108  60  21 W10       29.84F HX 109
$$

NVZ020-UTZ003-312300-
SOUTHERN NEVADA-UTAH

CITY           SKY/WX    TMP DP  RH WIND       PRES   REMARKS
LAS VEGAS      NOT AVBL
SALT LAKE CITY PTSUNNY   92  28  10 NW13      30.16F
$$

NMZ009-TXZ055-312300-
NEW MEXICO-WEST TEXAS

CITY           SKY/WX    TMP DP  RH WIND       PRES   REMARKS
ALBUQUERQUE    PTSUNNY   81  56  42 W13       30.26F
EL PASO        MOSUNNY   93  54  26 S14       30.11F
$$


........................KEY........................
SKY/WX - SKY CONDITION/WEATHER
TMP    - TEMPERATURE IN FAHRENHEIT
DP     - DEW POINT IN FAHRENHEIT
RH     - RELATIVE HUMIDITY IN PERCENT
WIND   - DIRECTION AND SPEED IN MILES PER HOUR (MPH)
VRB    - VARIABLE WIND DIRECTION
PRES   - MEAN SEA LEVEL PRESSURE IN INCHES OF MERCURY
         F - FALLING PRESSURE   R - RISING PRESSURE
         S - STEADY PRESSURE
VSB    - VISIBILITY IN MILES
HX     - HEAT INDEX IN FAHRENHEIT
WCI    - WIND CHILL INDEX IN FAHRENHEIT
TC     - TEMPERATURE IN CELSIUS WHICH IS ALSO KNOWN AS
         TEMPERATURE IN CENTIGRADE
AFB    - AIR FORCE BASE
         LUKE AFB IS LUKE AIR FORCE BASE
         DAVIS-MONTHAN IS DAVIS-MONTHAN AIR FORCE BASE
NAS    - NAVAL AIR STATION
         EL CENTRO NAS IS EL CENTRO NAVAL AIR STATION
N/A    - NOT AVAILABLE



USA.gov is the U.S. government's official web portal to all federal, state and local government web resources and services.